Regional Weather Roundup
Issued by NWS

Home | Current Version | Previous Version | Text Only | Print | Product List | Glossary Off
Versions: 1 2 3 4 5 6 7 8 9 10 11 12 13 14 15 16 17 18 19 20 21 22 23 24 25 26 27 28 29 30 31 32 33 34 35 36 37 38 39 40 41 42 43 44 45 46 47 48 49 50

000
ASUS45 KTFX 290510
RWRMT
MONTANA REGIONAL WEATHER ROUNDUP
NATIONAL WEATHER SERVICE GREAT FALLS MT
1100 PM MDT THU JUL 28 2016

NOTE: "FAIR" INDICATES FEW OR NO CLOUDS BELOW 12000 FEET WITH NO
SIGNIFICANT WEATHER AND/OR OBSTRUCTIONS TO VISIBILITY.

MTZ001>007-043-290600-
WEST OF THE DIVIDE

CITY           SKY/WX    TMP DP  RH WIND       PRES   REMARKS
KALISPELL      CLEAR     66  57  72 N7        30.04R
MISSOULA       CLEAR     73  48  41 NW5       30.06R
BUTTE          CLEAR     64  38  38 VRB5      30.20R
MULLAN PASS    CLEAR     66  40  38 NW5       30.26S
ANACONDA         N/A     64  45  48 SW5       30.17R
DEER LODGE       N/A     72  39  30 N5        30.17S
EUREKA           N/A     70  52  52 CALM      30.03R
HAMILTON         N/A     64  54  68 CALM      30.08R
LIBBY            N/A     72  50  46 S3        30.03R
RONAN            N/A     63  53  69 N2        30.10R
$$

MTZ008-052>055-290600-
SOUTHWEST MONTANA

CITY           SKY/WX    TMP DP  RH WIND       PRES   REMARKS
BOZEMAN        CLEAR     67  52  58 SE6       30.12R
DILLON         CLEAR     69  43  38 NE5       30.14R
W YELLOWSTONE  CLEAR     54  34  47 SW3       30.27R
ENNIS          CLEAR     64  41  42 CALM      30.20R
THREE FORKS      N/A     70  31  23 CALM      30.10S
TWIN BRIDGES     N/A     73  43  34 N10       30.10S
$$

MTZ009-010-012-014-046-048-049-054-290600-
EAST SLOPES AND CENTRAL MONTANA

CITY           SKY/WX    TMP DP  RH WIND       PRES   REMARKS
CUT BANK       PTCLDY    62  56  80 E7        30.12S
GREAT FALLS    CLEAR     71  50  47 E12       30.08S
MALMSTROM AFB  CLEAR     67  52  58 SE9       30.08S
HELENA         CLEAR     71  48  43 W9        30.08R
CHOTEAU          N/A     64  52  63 NE9       30.15R
$$

MTZ011-013-016-021-045-047-050-051-290600-
NORTH CENTRAL MONTANA

CITY           SKY/WX    TMP DP  RH WIND       PRES   REMARKS
HAVRE          PTCLDY    69  56  62 E10       30.06F
N BAR RANCH      N/A     61  50  67 SW3       30.21S
CHINOOK          N/A     66  57  72 E5        30.08S
$$

MTZ017>020-022>027-061-062-290600-
NORTHEAST MONTANA

CITY           SKY/WX    TMP DP  RH WIND       PRES   REMARKS
GLASGOW        CLEAR     64  56  75 E8        30.10S
JORDAN           N/A     65  58  78 CALM      30.12S
SIDNEY         CLEAR     62  56  80 SW3       30.13S
WOLF POINT     CLEAR     63  55  75 NE7       30.11S
PLENTYWOOD       N/A     64  52  63 E6        30.13S
SCOBEY           N/A     59  43  55 CALM      30.11S
$$

MTZ028>42-056>058-290600-
SOUTHCENTRAL AND SOUTHEAST MONTANA

CITY           SKY/WX    TMP DP  RH WIND       PRES   REMARKS
BAKER          CLEAR     60  59  96 SE7       30.16S
BILLINGS       CLEAR     70  50  49 E6        30.14S
LIVINGSTON     CLEAR     66  51  58 E10       30.15S
MILES CITY     CLEAR     70  56  61 E6        30.11S
EKALAKA          N/A     58  54  86 E3        30.13F
FORSYTH          N/A     66  55  68 CALM      30.11S
LAUREL           N/A     67  52  58 CALM      30.12R
ROUNDUP          N/A     66  50  56 CALM      30.05F
$$

REGIONAL REPORTS...DAKOTAS

CITY           SKY/WX    TMP DP  RH WIND       PRES   REMARKS
WILLISTON      CLOUDY    58  52  80 CALM      30.13S
MINOT          CLOUDY    64  53  67 CALM      30.12F
DICKINSON      CLOUDY    59  57  93 E3        30.14S
CROSBY           N/A     57  57 100 S6        30.15S
WATFORD CITY     N/A    N/A N/A N/A MISG        N/A
BISMARCK       CLOUDY    69  56  62 N5        30.12S
GRAND FORKS    CLEAR     59  55  87 NW6       30.10S
FARGO          CLEAR     62  58  86 N6        30.09R
BUFFALO SD       N/A     62  60  93 E8        30.10S
RAPID CITY     PTCLDY    60  57  89 NE5       30.17R
$$

REGIONAL REPORTS...WYOMING/IDAHO/WASHINGTON

CITY           SKY/WX    TMP DP  RH WIND       PRES   REMARKS
GILLETTE       CLOUDY    58  56  93 CALM      30.19S
SHERIDAN       CLEAR     61  52  72 S7        30.18S
BUFFALO WY     CLEAR     62  52  69 W3        30.25S
YELLOWSTONE LA   N/A     51  38  60 CALM      30.37S
IDAHO FALLS    CLEAR     80  36  20 S9        30.06S
SALMON         CLEAR     72  43  35 SE5       30.05R
BOISE          CLEAR     81  41  24 SW7       29.94R
SPOKANE        PTCLDY    85  47  26 CALM      30.00R
$$

REGIONAL REPORTS...ALBERTA

CITY           SKY/WX    TMP DP  RH WIND       PRES   REMARKS
EDMONTON       PTCLDY    55  54  94 NE3       30.06R
CALGARY        MOCLDY    64  55  72 W12       30.17R
LETHBRIDGE     LGT RAIN  63  59  88 E13G20    30.13R
MEDICINE HAT   CLOUDY    66  59  77 E3        30.06S
WATERTON GATE    N/A     59  55  88 NE7         N/A
CARDSTON         N/A     63  54  72 NE12G17     N/A
MILK RIVER       N/A     59  57  94 CALM        N/A
ONEFOUR          N/A     64  50  59 SE6         N/A
$$

REGIONAL REPORTS...SASKATCHEWAN

CITY           SKY/WX    TMP DP  RH WIND       PRES   REMARKS
SWIFT CURRENT  CLEAR     59  54  82 S10       30.10R
REGINA         PTCLDY    61  52  72 SE9       30.10S
SASKATOON      CLOUDY    66  59  77 NE6       30.06F
CYPRESS HILLS    N/A     59  48  67 SE6         N/A
VAL MARIE        N/A     57  54  88 SW3         N/A
ROCKGLEN         N/A     63  50  63 SE9         N/A
ASSINIBOIA       N/A     61  57  88 E6          N/A
$$



USA.gov is the U.S. government's official web portal to all federal, state and local government web resources and services.